When you browse on this site, cookies collect data to enhance your experience and personalize the content and advertising you see.
Visit our Privacy Policy to learn more. By continuing to use the site, you agree to this use of cookies and data.
  • En España
  • Lista de países
  • Para 7 días
  • Temperatura del agua
  • Mapa Satelital
  • El tiempo en el mapa
  • Informadores
  • user-avatar
    Iniciar sesión

    Tiempo cada hora La Rioja

    Hoy, 17 Junio, Lunes

    Tiempo Temperatura Precipitaciones Viento Presión Humedad
    00:00 +6°C° 0 mm 2 mps 720 mmHg 62%
    01:00 +7°C° 0 mm 1 mps 720 mmHg 65%
    02:00 +6°C° 0 mm 1 mps 720 mmHg 67%
    03:00 +6°C° 0 mm 1 mps 719 mmHg 68%
    04:00 +5°C° 0 mm 1 mps 719 mmHg 69%
    05:00 +5°C° 0 mm 1 mps 718 mmHg 69%
    06:00 +6°C° 0 mm 1 mps 718 mmHg 68%
    07:00 +6°C° 0 mm 1 mps 718 mmHg 67%
    08:00 +5°C° 0 mm 0 mps 718 mmHg 67%
    09:00 +8°C° 0 mm 1 mps 718 mmHg 60%
    10:00 +10°C° 0 mm 1 mps 717 mmHg 53%
    11:00 +11°C° 0 mm 1 mps 717 mmHg 46%
    12:00 +12°C° 0 mm 2 mps 716 mmHg 46%
    13:00 +12°C° 0 mm 2 mps 714 mmHg 45%
    14:00 +13°C° 0 mm 2 mps 713 mmHg 44%
    15:00 +13°C° 0 mm 2 mps 713 mmHg 46%
    16:00 +13°C° 0 mm 2 mps 712 mmHg 47%
    17:00 +12°C° 0 mm 2 mps 712 mmHg 49%
    18:00 +10°C° 0 mm 2 mps 713 mmHg 53%
    19:00 +9°C° 0 mm 2 mps 713 mmHg 56%
    20:00 +8°C° 0 mm 2 mps 714 mmHg 60%
    21:00 +8°C° 0 mm 2 mps 715 mmHg 63%
    22:00 +8°C° 0 mm 2 mps 715 mmHg 66%
    23:00 +7°C° 0 mm 2 mps 716 mmHg 69%

    Mañana, 18 Junio, Martes

    Tiempo Temperatura Precipitaciones Viento Presión Humedad
    00:00 +8°C° 0 mm 1 mps 716 mmHg 71%
    01:00 +7°C° 0 mm 1 mps 716 mmHg 72%
    02:00 +7°C° 0 mm 1 mps 716 mmHg 73%
    03:00 +7°C° 0 mm 1 mps 716 mmHg 73%
    04:00 +6°C° 0 mm 1 mps 716 mmHg 74%
    05:00 +6°C° 0 mm 1 mps 716 mmHg 74%
    06:00 +6°C° 0 mm 1 mps 716 mmHg 70%
    07:00 +7°C° 0 mm 1 mps 717 mmHg 66%
    08:00 +7°C° 0 mm 1 mps 717 mmHg 62%
    09:00 +10°C° 0 mm 1 mps 718 mmHg 52%
    10:00 +12°C° 0 mm 1 mps 718 mmHg 43%
    11:00 +15°C° 0 mm 1 mps 718 mmHg 33%
    12:00 +16°C° 0 mm 1 mps 718 mmHg 29%
    13:00 +18°C° 0 mm 1 mps 717 mmHg 26%
    14:00 +19°C° 0 mm 1 mps 717 mmHg 22%
    15:00 +18°C° 0 mm 1 mps 717 mmHg 23%
    16:00 +18°C° 0 mm 1 mps 717 mmHg 25%
    17:00 +18°C° 0 mm 1 mps 717 mmHg 26%
    18:00 +15°C° 0 mm 1 mps 717 mmHg 28%
    19:00 +13°C° 0 mm 1 mps 717 mmHg 30%
    20:00 +12°C° 0 mm 1 mps 717 mmHg 32%
    21:00 +11°C° 0 mm 1 mps 717 mmHg 32%
    22:00 +11°C° 0 mm 1 mps 717 mmHg 32%
    23:00 +11°C° 0 mm 1 mps 718 mmHg 31%

    Pasado mañana, 19 Junio, Miércoles

    Tiempo Temperatura Precipitaciones Viento Presión Humedad
    00:00 +10°C° 0 mm 1 mps 718 mmHg 32%
    01:00 +10°C° 0 mm 1 mps 718 mmHg 33%
    02:00 +10°C° 0 mm 1 mps 718 mmHg 34%
    03:00 +9°C° 0 mm 1 mps 717 mmHg 34%
    04:00 +9°C° 0 mm 1 mps 717 mmHg 34%
    05:00 +9°C° 0 mm 1 mps 717 mmHg 34%
    06:00 +9°C° 0 mm 1 mps 718 mmHg 33%
    07:00 +9°C° 0 mm 1 mps 718 mmHg 31%
    08:00 +10°C° 0 mm 1 mps 718 mmHg 30%
    09:00 +13°C° 0 mm 1 mps 719 mmHg 26%
    10:00 +16°C° 0 mm 1 mps 719 mmHg 21%
    11:00 +19°C° 0 mm 1 mps 719 mmHg 17%
    12:00 +20°C° 0 mm 1 mps 719 mmHg 17%
    13:00 +21°C° 0 mm 1 mps 718 mmHg 17%
    14:00 +22°C° 0 mm 1 mps 718 mmHg 17%
    15:00 +21°C° 0 mm 1 mps 717 mmHg 20%
    16:00 +21°C° 0 mm 1 mps 717 mmHg 23%
    17:00 +20°C° 0 mm 1 mps 717 mmHg 27%
    18:00 +18°C° 0 mm 1 mps 717 mmHg 30%
    19:00 +15°C° 0 mm 1 mps 717 mmHg 33%
    20:00 +13°C° 0 mm 1 mps 717 mmHg 36%
    21:00 +13°C° 0 mm 1 mps 717 mmHg 35%
    22:00 +13°C° 0 mm 1 mps 717 mmHg 35%
    23:00 +13°C° 0 mm 1 mps 717 mmHg 34%

    20 Junio, Jueves

    Tiempo Temperatura Precipitaciones Viento Presión Humedad
    00:00 +12°C° 0 mm 1 mps 716 mmHg 35%
    01:00 +12°C° 0 mm 1 mps 716 mmHg 36%
    02:00 +11°C° 0 mm 1 mps 716 mmHg 37%
    03:00 +11°C° 0 mm 1 mps 715 mmHg 39%
    04:00 +10°C° 0 mm 1 mps 715 mmHg 41%
    05:00 +10°C° 0 mm 1 mps 714 mmHg 43%
    06:00 +10°C° 0 mm 1 mps 715 mmHg 43%
    07:00 +10°C° 0 mm 1 mps 715 mmHg 43%
    08:00 +10°C° 0 mm 1 mps 715 mmHg 44%
    09:00 +13°C° 0 mm 2 mps 715 mmHg 38%
    10:00 +15°C° 0 mm 2 mps 715 mmHg 33%
    11:00 +18°C° 0 mm 2 mps 715 mmHg 28%
    12:00 +19°C° 0 mm 2 mps 714 mmHg 27%
    13:00 +19°C° 0 mm 2 mps 713 mmHg 26%
    14:00 +20°C° 0 mm 2 mps 712 mmHg 25%
    15:00 +21°C° 0 mm 1 mps 712 mmHg 27%
    16:00 +20°C° 0 mm 1 mps 712 mmHg 29%
    17:00 +20°C° 0 mm 1 mps 711 mmHg 31%
    18:00 +18°C° 0 mm 1 mps 712 mmHg 34%
    19:00 +15°C° 0 mm 1 mps 712 mmHg 37%
    20:00 +13°C° 0 mm 0 mps 712 mmHg 40%
    21:00 +12°C° 0 mm 0 mps 712 mmHg 41%
    22:00 +12°C° 0 mm 0 mps 712 mmHg 42%
    23:00 +13°C° 0 mm 1 mps 712 mmHg 43%

    21 Junio, Viernes

    Tiempo Temperatura Precipitaciones Viento Presión Humedad
    00:00 +12°C° 0 mm 1 mps 712 mmHg 46%
    01:00 +12°C° 0 mm 1 mps 712 mmHg 48%
    02:00 +12°C° 0 mm 1 mps 712 mmHg 51%
    03:00 +11°C° 0 mm 1 mps 711 mmHg 57%
    04:00 +11°C° 0 mm 1 mps 711 mmHg 63%
    05:00 +11°C° 0 mm 1 mps 711 mmHg 68%
    06:00 +11°C° 0 mm 1 mps 711 mmHg 67%
    07:00 +11°C° 0 mm 1 mps 712 mmHg 66%
    08:00 +11°C° 0 mm 1 mps 712 mmHg 65%
    09:00 +14°C° 0 mm 2 mps 713 mmHg 59%
    10:00 +16°C° 0 mm 2 mps 713 mmHg 54%
    11:00 +18°C° 0 mm 2 mps 714 mmHg 48%
    12:00 +19°C° 0 mm 2 mps 714 mmHg 47%
    13:00 +19°C° 0 mm 2 mps 713 mmHg 46%
    14:00 +20°C° 0 mm 2 mps 713 mmHg 45%
    15:00 +19°C° 0 mm 2 mps 713 mmHg 48%
    16:00 +19°C° 0 mm 2 mps 713 mmHg 51%
    17:00 +19°C° 0 mm 1 mps 713 mmHg 54%
    18:00 +18°C° 0 mm 1 mps 714 mmHg 58%
    19:00 +15°C° 0 mm 1 mps 714 mmHg 63%
    20:00 +14°C° 0 mm 1 mps 715 mmHg 67%
    21:00 +13°C° 0 mm 1 mps 715 mmHg 69%
    22:00 +13°C° 0 mm 1 mps 715 mmHg 71%
    23:00 +11°C° 0 mm 0 mps 715 mmHg 73%

    22 Junio, Sábado

    Tiempo Temperatura Precipitaciones Viento Presión Humedad
    00:00 +11°C° 0 mm 0 mps 715 mmHg 73%
    01:00 +11°C° 0 mm 0 mps 715 mmHg 74%
    02:00 +10°C° 0 mm 0 mps 714 mmHg 75%
    03:00 +10°C° 0 mm 0 mps 714 mmHg 76%
    04:00 +9°C° 0 mm 0 mps 714 mmHg 77%
    05:00 +9°C° 0 mm 0 mps 714 mmHg 78%
    06:00 +10°C° 0 mm 0 mps 714 mmHg 75%
    07:00 +10°C° 0 mm 0 mps 715 mmHg 72%
    08:00 +11°C° 0 mm 0 mps 715 mmHg 69%
    09:00 +13°C° 0 mm 0 mps 715 mmHg 60%
    10:00 +16°C° 0 mm 0 mps 716 mmHg 51%
    11:00 +21°C° 0 mm 1 mps 716 mmHg 42%
    12:00 +21°C° 0 mm 1 mps 715 mmHg 40%
    13:00 +22°C° 0 mm 1 mps 715 mmHg 39%
    14:00 +23°C° 0 mm 1 mps 714 mmHg 37%
    15:00 +22°C° 0 mm 1 mps 714 mmHg 40%
    16:00 +21°C° 0 mm 1 mps 713 mmHg 44%
    17:00 +21°C° 0 mm 1 mps 713 mmHg 47%
    18:00 +19°C° 0 mm 1 mps 713 mmHg 51%
    19:00 +18°C° 0 mm 1 mps 713 mmHg 56%
    20:00 +15°C° 0 mm 1 mps 713 mmHg 60%
    21:00 +14°C° 0 mm 0 mps 713 mmHg 62%
    22:00 +13°C° 0 mm 0 mps 714 mmHg 63%
    23:00 +13°C° 0 mm 0 mps 714 mmHg 64%
    Mostrar más